Wind_Speed
16 16 16 16 16 16 16 16 17 17 17 17 16 16 17 17 17 17 16 16 16 16 16 15 14 14 14 13 11 11 11 11 12 9 7 11 18 22 22 20 17 17 21 24 26 27 26 24 23 21 19 17 15 14 14 11 9 8 5 2 2 4 5 8 8 6 6 8 11 10 9 11 15 16 13 11 9 9 12 13 12 12 11 11 15 21 25 27
17 17 18 18 18 18 18 18 18 18 17 17 17 16 16 17 17 17 17 16 17 17 17 16 16 15 15 14 12 12 11 11 10 4 6 15 23 25 23 22 19 17 19 23 25 25 25 24 24 23 20 18 16 15 15 13 11 8 5 3 5 6 7 9 7 5 6 8 7 5 6 10 13 14 13 13 14 12 11 12 13 14 16 16 20 23 25 27
18 18 19 19 19 19 19 19 19 19 19 19 18 18 17 17 17 17 17 16 17 17 18 17 17 16 15 14 13 12 12 10 9 5 11 17 20 22 20 19 18 16 16 19 22 23 23 22 23 23 21 19 17 16 15 13 12 9 6 3 7 9 9 8 6 6 10 9 4 4 10 10 11 14 13 13 14 12 11 9 10 15 18 20 24 25 25 26
19 19 20 20 20 20 20 20 20 20 20 20 19 19 19 18 18 18 17 16 16 17 18 17 17 18 16 15 13 13 12 11 9 7 13 17 16 17 17 18 17 15 16 19 22 23 23 23 23 23 22 20 18 17 17 14 12 10 8 7 10 9 8 6 7 8 11 13 5 5 11 11 12 15 13 11 11 10 10 6 4 9 16 21 24 26 25 25
20 20 20 21 21 21 21 21 21 21 21 21 20 20 20 20 19 19 18 17 16 17 18 18 17 18 17 16 15 13 12 10 7 5 10 15 14 12 14 17 17 15 16 20 24 26 26 26 26 25 24 22 21 20 18 14 11 12 9 10 9 6 7 8 7 3 7 13 6 3 7 9 13 15 12 9 8 6 5 1 2 4 10 16 21 25 25 24
20 20 20 21 21 21 21 21 22 22 22 22 21 21 21 21 21 20 20 19 17 16 17 18 18 17 18 17 16 14 12 8 5 4 6 9 10 11 13 16 18 17 18 21 25 28 29 29 28 29 27 25 25 22 17 15 12 12 10 9 8 5 7 8 4 1 5 10 8 5 6 9 10 10 9 9 10 8 5 2 2 5 5 10 17 23 24 23
19 19 19 20 20 20 21 21 21 22 22 22 22 22 22 22 22 21 21 21 19 18 17 18 18 17 17 18 18 16 12 9 9 10 8 7 8 11 14 16 19 20 20 21 25 30 31 31 32 30 28 27 26 22 17 16 14 12 11 10 6 3 3 4 2 3 5 8 8 6 7 8 7 7 8 9 10 11 8 5 5 7 8 10 16 20 22 22
18 19 19 19 19 20 20 20 21 21 22 22 22 22 22 22 22 22 22 22 21 20 18 18 18 17 17 18 18 17 14 12 11 11 10 9 9 13 16 17 20 21 20 20 24 29 31 33 33 30 29 28 26 22 17 16 17 16 12 9 6 6 7 6 5 8 8 7 7 7 9 8 5 6 8 9 11 13 11 8 8 10 11 13 15 19 23 24
19 19 19 19 19 19 19 20 20 21 21 21 22 22 22 22 22 22 22 22 22 22 21 20 19 18 18 18 18 16 15 14 11 10 11 11 11 13 15 16 17 18 18 19 21 26 32 33 32 31 30 26 24 23 18 18 20 16 10 8 7 8 9 9 9 9 10 11 9 9 10 8 6 7 9 11 13 14 13 10 11 12 13 13 14 18 23 25
19 19 19 19 19 19 19 20 20 20 20 21 21 22 22 22 22 22 22 23 22 22 22 21 21 20 18 18 17 13 13 15 12 10 10 10 11 13 14 16 17 17 17 18 22 27 31 31 29 28 26 23 22 22 21 21 19 14 10 9 11 11 11 11 11 10 9 11 13 12 12 11 10 12 14 15 16 16 14 13 13 13 13 13 15 19 21 24
20 20 19 19 19 20 20 20 20 20 20 20 21 21 22 22 22 21 22 23 22 22 23 22 22 22 20 20 16 10 13 17 14 11 12 12 12 11 13 15 17 18 17 17 19 24 27 27 26 26 25 23 22 20 22 22 16 16 16 15 17 18 18 17 16 14 11 11 13 13 14 15 15 16 17 18 18 17 15 15 15 15 13 14 17 19 21 23
21 21 20 19 20 20 21 21 20 20 20 20 21 21 21 21 21 21 21 22 22 23 23 23 24 23 23 21 12 8 14 18 17 17 17 16 14 13 14 15 16 18 19 17 16 19 24 25 26 28 26 23 21 19 20 22 19 19 19 21 22 22 25 25 21 19 16 14 12 12 15 19 18 16 17 17 17 17 16 15 17 16 15 15 18 20 22 22
21 21 21 20 20 20 20 20 20 20 20 21 21 22 22 21 21 21 20 21 21 23 23 24 24 24 26 20 8 9 14 17 21 23 22 18 15 15 17 17 16 17 19 18 14 14 20 25 27 30 26 22 22 16 16 21 20 20 20 22 22 22 26 27 26 22 18 15 13 15 18 21 19 15 15 16 17 19 18 17 18 18 17 17 19 21 22 23
21 21 21 21 20 20 19 20 21 21 21 21 22 23 23 23 22 22 21 20 20 22 23 24 25 24 28 20 10 13 18 21 23 21 20 19 16 16 18 19 18 18 20 19 16 15 19 24 27 28 26 24 23 17 15 17 19 20 21 22 23 25 26 25 27 25 20 18 17 18 19 20 21 18 17 17 19 21 19 19 19 18 18 19 20 22 22 23
21 20 20 20 20 19 19 21 22 22 23 22 22 24 24 24 24 23 22 21 19 21 23 23 24 25 28 22 15 18 20 22 23 19 19 20 17 15 16 19 19 18 20 21 20 18 20 25 28 30 28 25 22 20 21 20 21 21 21 23 24 26 25 22 26 27 22 21 22 22 19 19 20 20 21 20 22 24 20 20 20 19 19 20 22 23 23 23
20 20 20 19 20 20 20 22 23 23 24 23 23 24 26 27 26 24 23 19 17 20 22 22 22 25 26 22 17 19 21 20 18 19 21 21 18 14 13 17 18 18 20 22 22 21 25 29 30 29 27 26 25 23 23 24 26 26 23 23 22 23 23 20 24 26 22 21 24 26 22 19 19 19 22 23 24 24 22 22 20 19 19 20 22 23 24 25
21 21 21 21 22 22 22 24 25 25 25 24 24 24 26 28 28 27 23 17 15 18 20 20 21 23 24 20 17 16 19 21 21 22 23 20 17 16 16 17 18 19 21 23 24 25 30 33 30 29 29 29 29 25 24 28 32 31 26 25 23 20 21 23 23 23 23 22 25 28 26 22 19 18 22 25 25 25 24 24 21 19 18 19 20 22 25 26
24 24 23 23 24 25 25 26 28 27 26 26 26 26 28 29 30 30 24 18 16 16 18 20 21 23 19 16 16 16 17 21 24 26 25 21 18 17 18 17 18 20 22 26 28 29 33 35 31 29 30 32 33 32 32 33 34 32 28 26 25 21 21 26 27 25 25 26 26 27 28 26 20 17 21 24 24 26 27 26 22 20 19 18 20 22 24 25
27 27 26 26 26 27 27 27 29 29 27 26 26 27 28 28 29 29 24 20 19 20 23 25 24 24 19 14 11 14 19 20 23 27 27 24 21 19 18 17 17 19 25 29 31 33 36 36 32 32 37 40 41 40 40 35 29 29 28 25 25 22 22 25 26 25 25 28 30 29 29 28 24 21 23 25 25 26 28 28 24 20 20 20 19 20 22 23
29 28 28 27 26 27 27 27 28 29 28 27 26 27 29 30 31 31 26 21 24 29 28 24 23 23 24 22 13 15 23 24 25 26 26 26 25 22 20 20 20 20 26 32 33 36 38 37 38 44 46 45 43 40 37 34 28 25 25 25 24 22 24 27 27 25 24 28 32 31 29 30 29 25 24 26 29 29 30 31 26 21 22 22 19 19 20 19
30 29 28 27 25 26 26 26 26 27 28 27 27 29 31 34 35 37 35 27 27 30 26 21 21 22 19 20 18 20 26 28 29 26 26 29 29 28 27 26 28 28 30 31 31 33 35 38 45 50 45 39 38 38 35 32 31 27 23 25 26 25 28 29 27 26 24 28 33 34 32 32 32 28 23 26 32 33 34 34 28 24 23 22 21 20 19 16
29 28 28 26 24 24 24 25 24 25 26 26 26 26 28 30 31 35 38 38 33 22 16 15 16 16 12 14 17 24 30 30 31 28 28 29 32 34 34 33 36 36 32 30 31 32 35 43 49 46 39 34 32 33 35 33 31 30 27 27 29 30 30 30 29 27 25 28 32 34 35 35 34 30 26 28 32 32 34 35 30 25 23 23 23 21 20 19
28 27 27 26 24 23 24 24 23 24 24 24 24 23 24 25 27 30 34 40 32 14 8 14 12 8 6 10 17 28 35 33 31 31 32 32 33 34 36 39 40 37 35 35 36 37 40 45 46 42 36 33 32 31 33 34 33 32 32 31 32 33 30 30 32 28 23 27 31 34 38 38 33 31 31 28 27 29 32 35 31 26 22 20 21 22 21 22
28 27 27 26 24 22 23 23 22 23 22 23 22 21 23 21 25 28 30 34 25 9 9 12 11 9 6 3 16 30 35 34 32 31 34 33 32 32 36 41 41 40 40 40 40 42 44 39 35 39 39 33 32 32 31 33 36 36 36 36 36 35 33 34 33 26 21 21 27 33 34 35 34 33 36 32 26 30 34 36 33 28 24 18 18 22 22 22
29 28 27 27 25 22 23 22 21 21 21 22 22 20 21 20 23 26 28 29 15 5 9 9 10 13 11 5 10 21 28 36 35 31 34 34 32 31 35 40 42 44 42 39 39 43 45 35 23 28 39 38 33 33 34 34 36 38 40 41 38 37 36 35 30 24 21 20 25 34 27 23 38 39 36 36 34 37 39 38 37 31 27 23 21 23 22 22
30 29 28 28 27 25 23 23 21 20 20 20 20 19 19 20 21 21 24 21 6 2 8 8 10 11 11 13 8 13 19 28 33 33 34 34 33 31 32 39 44 45 41 37 37 41 45 39 24 18 29 39 37 36 37 35 35 39 43 44 40 39 38 36 28 21 20 19 20 38 30 18 36 44 39 40 42 44 42 39 38 33 29 29 27 25 23 22
31 30 29 28 29 28 26 25 23 22 21 20 19 19 19 19 18 19 18 11 4 6 8 9 14 13 11 17 14 7 4 6 16 32 36 33 34 33 33 38 40 41 38 33 35 41 43 40 34 25 24 34 41 40 39 37 38 40 42 42 40 41 38 36 32 23 22 21 17 32 41 24 30 44 44 44 48 48 45 42 40 37 33 31 31 29 25 23
31 31 29 27 28 29 28 27 24 23 23 21 20 19 18 16 15 14 10 2 5 13 13 11 13 13 10 11 15 14 7 8 10 18 30 33 35 34 36 38 37 37 35 34 39 41 39 40 40 35 30 34 41 42 39 38 41 41 35 34 37 42 41 37 34 30 28 25 21 25 36 21 21 42 47 46 52 51 48 46 42 40 38 33 33 32 28 25
31 30 29 26 26 27 28 27 26 24 22 21 19 17 16 14 11 9 3 0 8 18 18 16 16 14 10 2 9 14 7 5 10 9 19 29 37 36 35 37 35 34 32 36 41 36 32 35 36 37 38 38 37 37 38 38 40 39 31 27 29 33 37 35 30 34 31 22 22 27 27 15 12 36 49 47 51 51 48 46 42 42 41 36 34 33 30 27
31 30 29 27 25 25 24 22 23 22 20 19 17 16 15 11 9 5 2 3 14 22 20 20 20 16 14 12 3 5 7 7 10 11 14 22 36 38 33 33 34 35 34 35 39 37 31 27 28 35 40 39 34 31 35 38 36 35 31 28 28 28 32 31 29 34 25 13 24 33 28 20 11 26 48 49 46 47 47 46 44 44 42 37 36 35 33 30
32 30 29 27 26 25 21 17 18 18 16 15 15 16 13 8 6 4 1 8 16 20 21 22 23 17 16 23 15 9 14 16 15 10 10 14 26 38 34 28 31 36 36 35 35 37 36 29 27 31 33 36 36 31 31 35 35 32 30 30 30 28 29 28 28 31 15 6 23 32 29 26 16 21 39 45 44 44 45 45 44 45 44 42 40 37 35 32
32 30 29 28 26 25 22 17 18 17 15 14 14 15 10 5 7 5 7 14 12 16 25 28 29 25 24 29 26 24 25 20 17 13 2 3 8 30 39 32 31 33 35 39 33 30 38 41 34 28 27 32 37 35 30 31 36 35 33 33 25 17 16 14 13 15 7 7 22 27 24 25 25 29 35 37 40 42 44 44 41 41 44 44 44 41 38 35
33 31 29 27 26 25 21 18 19 17 15 15 14 12 7 5 5 7 14 16 12 18 27 29 31 31 27 26 26 27 26 19 15 14 6 7 7 13 33 37 34 28 29 36 31 25 30 38 41 36 31 31 37 40 35 33 39 40 38 37 24 9 6 6 5 4 4 11 24 27 22 18 22 32 35 35 37 38 41 43 40 39 41 41 43 42 40 37
34 32 29 27 27 25 21 19 20 17 15 16 13 8 7 5 4 10 14 16 18 22 26 28 29 25 20 19 22 26 25 20 17 18 18 15 14 9 5 23 34 33 31 31 31 29 23 24 38 45 38 33 35 41 39 34 38 41 39 38 32 22 14 6 3 4 4 9 21 25 17 13 18 25 30 33 33 33 38 42 42 39 39 40 39 39 40 39
33 33 30 26 24 22 21 19 17 16 15 13 10 7 8 7 7 10 14 16 20 23 24 26 24 20 18 17 19 23 24 23 26 26 24 19 16 20 18 3 10 14 15 17 23 28 26 26 33 36 36 35 33 36 40 35 34 39 39 37 39 39 28 10 3 6 8 5 13 21 12 9 16 21 24 28 30 32 32 36 41 41 40 41 40 39 40 39
31 33 30 25 21 20 19 17 14 12 10 9 7 7 8 9 8 8 11 15 18 22 24 23 20 19 21 20 20 23 25 25 27 28 25 21 16 18 18 14 14 14 11 0 11 13 18 29 29 24 29 37 34 33 38 39 34 36 41 43 43 42 32 17 7 8 10 5 9 20 13 8 13 16 20 25 28 32 30 28 35 39 41 43 43 42 42 40
31 32 27 20 19 21 19 13 9 6 3 5 5 4 6 9 9 9 11 14 16 19 20 19 18 18 19 21 22 25 28 25 24 26 28 24 17 15 16 13 13 13 14 5 9 6 8 21 26 23 27 35 36 32 34 40 37 36 43 46 40 34 31 26 12 4 7 5 6 16 17 14 15 17 22 26 26 30 33 30 30 33 40 44 43 42 42 42
32 30 22 17 20 25 21 13 6 3 1 4 4 4 5 6 8 9 10 12 13 15 16 15 16 15 16 20 20 22 27 25 24 27 28 23 15 14 20 18 11 12 16 13 2 5 9 14 22 29 27 29 36 36 35 41 42 39 41 42 37 28 27 29 18 5 5 4 2 9 17 20 23 23 24 30 32 31 33 34 32 32 38 42 42 41 41 42
31 24 14 18 25 25 22 15 7 3 4 7 6 5 5 5 7 9 11 13 11 12 14 13 14 14 15 18 18 19 21 22 24 24 19 19 17 18 25 22 9 9 16 16 11 8 7 5 14 31 30 24 33 42 42 43 46 44 37 38 42 35 30 32 24 12 7 4 4 6 8 18 31 31 27 34 41 40 38 38 36 34 35 38 40 39 41 44
31 22 11 20 26 21 19 15 10 8 8 9 9 9 9 9 10 11 14 15 11 10 12 12 13 14 14 15 14 15 17 20 23 19 16 19 22 22 22 20 15 13 15 16 18 12 4 6 12 33 33 21 27 42 49 48 46 46 40 38 43 38 30 31 27 22 13 3 4 5 3 17 31 33 33 36 36 38 41 42 40 38 34 34 36 38 41 43
32 26 18 23 25 19 16 11 9 8 7 9 10 8 8 7 7 10 14 14 11 8 10 12 13 13 14 15 15 15 16 18 18 16 18 21 20 20 20 23 28 25 15 12 16 19 16 15 14 29 33 25 25 34 47 50 44 43 42 40 42 38 31 21 16 25 26 11 6 6 5 19 27 25 29 32 28 29 35 40 42 41 37 33 33 35 39 40
32 29 25 26 27 24 18 12 10 8 4 6 6 7 10 7 4 9 12 11 9 8 11 14 13 13 14 15 16 15 15 17 16 16 20 22 20 22 26 29 32 30 24 20 17 21 23 18 14 26 34 32 29 26 33 45 45 42 40 40 41 41 39 27 13 23 31 22 18 10 5 17 21 15 18 24 26 27 30 37 42 42 38 35 34 34 34 35
35 30 27 28 28 25 19 16 13 13 10 6 4 4 10 6 4 10 11 11 10 10 14 15 13 14 15 15 14 13 14 16 16 16 19 21 22 25 28 30 29 29 27 23 19 21 18 11 13 21 31 36 38 28 23 34 44 43 40 42 42 41 44 40 28 28 28 25 25 11 4 17 19 12 15 21 25 29 29 33 39 41 38 35 36 38 32 28
37 34 31 31 27 21 14 12 10 13 15 11 9 4 6 6 9 12 12 13 13 11 14 15 14 16 15 14 13 12 13 13 13 17 20 20 23 25 27 30 30 28 25 21 22 23 15 12 18 16 15 20 28 25 20 25 36 44 43 43 44 44 45 41 34 31 25 27 30 13 7 22 20 10 20 22 25 31 29 30 35 39 37 32 34 40 35 26
38 36 35 32 23 15 10 7 6 9 13 12 8 6 5 7 8 8 9 11 10 9 12 14 16 17 15 14 14 13 13 13 15 20 22 21 24 24 24 28 28 28 25 22 21 20 18 20 18 11 6 6 10 12 10 11 20 36 45 47 46 45 45 39 32 27 21 26 34 23 19 31 25 14 18 15 21 28 26 29 33 35 34 30 29 34 34 27
37 37 38 31 19 12 8 6 7 8 11 11 8 8 9 8 7 5 6 8 9 9 11 14 15 17 16 16 17 17 17 16 17 19 21 23 24 23 23 25 26 27 25 21 18 17 21 23 15 13 15 16 19 15 10 5 12 21 39 50 48 42 43 42 34 29 26 26 32 32 33 38 31 18 10 6 17 24 28 32 34 32 31 29 27 28 30 29
34 35 37 33 21 15 11 5 8 7 9 12 12 10 10 9 9 9 7 8 10 10 11 13 14 16 17 16 16 19 21 19 18 19 21 23 24 23 23 23 25 26 23 21 19 17 22 19 10 11 18 23 27 24 16 13 16 16 26 45 50 40 40 44 39 34 31 25 25 30 35 37 33 19 7 12 19 23 28 31 31 30 30 29 28 27 27 29
33 32 32 29 24 22 18 8 6 6 8 10 9 5 7 8 9 12 12 11 11 9 11 14 14 14 16 16 17 20 23 21 18 19 21 24 25 25 23 21 21 24 27 24 18 15 21 18 13 20 22 20 25 26 21 18 16 15 20 39 51 45 41 43 41 37 32 26 24 26 29 32 31 20 12 15 21 22 26 28 27 27 29 29 30 29 26 28
32 32 30 25 22 22 20 14 9 7 8 8 5 3 5 7 6 8 10 12 13 11 13 15 15 15 15 16 19 20 21 19 18 19 22 24 26 27 26 21 15 20 26 24 18 14 18 16 17 27 22 14 20 20 16 14 14 14 20 38 49 47 44 43 40 37 33 30 28 25 25 27 26 21 16 16 22 26 26 26 24 25 28 30 31 32 29 27
32 32 29 26 23 21 19 16 12 8 6 6 6 5 6 7 8 8 10 12 13 12 12 13 16 19 18 17 18 18 16 14 16 18 19 21 24 25 26 23 15 17 22 21 18 13 16 18 19 29 22 7 12 14 14 10 10 5 21 40 47 47 44 42 39 36 34 33 30 26 26 27 25 23 20 15 18 25 28 28 26 24 25 28 29 31 30 28
33 31 27 25 24 22 20 17 14 11 8 6 8 9 8 9 11 14 13 11 10 12 14 16 19 21 21 19 18 17 16 15 17 18 18 19 19 20 22 22 17 16 20 21 19 15 17 22 21 28 24 6 5 11 16 10 4 7 13 23 40 47 45 40 37 35 34 34 34 31 27 25 27 25 20 14 15 23 29 31 29 25 23 26 29 31 30 28
32 29 26 24 23 22 20 17 14 13 11 10 11 12 13 13 14 16 15 10 8 11 15 18 19 21 21 20 19 19 20 21 21 20 20 20 19 19 21 19 15 14 18 22 23 19 18 22 22 25 21 10 4 7 13 7 1 9 14 6 15 33 43 39 28 28 32 29 29 32 26 23 28 26 21 23 23 25 28 29 27 24 23 24 28 31 30 27
Wind_Direction
327 326 324 323 322 321 320 320 319 318 318 317 316 314 311 308 305 302 299 297 296 294 294 295 294 294 293 292 289 285 281 277 273 267 251 213 207 213 211 217 217 204 205 205 201 199 196 193 195 198 198 197 192 187 193 198 204 201 197 223 157 130 98 102 97 62 70 130 150 146 145 148 152 162 171 165 160 150 138 138 151 163 164 177 192 178 165 165
326 324 322 321 320 319 318 317 316 315 315 314 315 313 312 310 307 304 300 297 294 291 291 291 291 291 291 293 292 287 283 280 280 262 221 214 208 212 209 212 219 207 204 207 204 200 198 196 197 199 200 199 195 195 196 200 208 199 208 209 139 128 116 107 92 72 90 116 136 145 159 156 161 173 175 172 166 165 160 151 162 170 163 172 185 177 170 170
326 325 323 321 320 319 317 316 314 312 311 311 311 310 309 308 307 305 303 299 295 291 289 288 288 288 288 291 292 288 285 282 284 238 225 228 218 218 212 208 215 209 203 206 205 202 199 197 201 202 201 198 198 203 200 201 204 197 213 186 127 130 128 113 92 95 115 130 140 158 171 169 171 178 177 179 175 183 199 186 178 182 172 170 180 179 173 174
328 326 325 323 322 320 318 316 313 311 309 308 307 306 305 304 304 304 303 301 296 292 288 286 285 285 287 288 288 288 287 286 285 251 236 238 230 225 216 205 208 204 200 200 200 199 197 197 200 202 203 198 195 204 204 198 195 193 189 137 119 127 126 122 116 102 117 135 142 158 173 181 178 178 183 189 188 201 222 217 189 198 188 175 179 183 178 178
331 330 328 326 324 323 321 318 316 313 310 309 307 305 302 301 300 299 300 299 297 293 289 286 283 282 283 284 285 284 285 291 289 260 243 244 239 228 216 208 207 201 198 199 196 194 195 197 196 197 201 197 195 202 202 194 192 195 177 134 131 131 124 131 128 113 131 138 145 201 186 185 184 183 193 213 237 262 267 237 140 184 198 186 185 185 183 182
335 334 332 330 328 327 324 321 319 315 313 310 308 305 302 299 298 296 296 295 295 293 290 287 284 281 280 280 281 278 278 287 271 245 250 251 241 225 211 206 206 202 201 200 196 194 195 196 196 196 195 195 198 201 196 191 192 195 182 152 145 137 138 140 127 254 173 157 172 218 196 175 181 183 197 235 262 272 275 280 173 163 186 195 192 190 190 187
343 342 340 338 336 334 331 328 324 321 318 314 311 307 303 300 297 294 293 292 292 291 288 287 285 280 277 275 276 276 276 273 258 251 252 248 229 216 208 203 204 205 206 203 198 197 195 197 198 195 193 194 198 196 190 187 193 200 184 165 157 162 191 165 165 236 195 177 182 202 193 172 177 189 202 223 234 237 244 255 212 190 192 193 194 195 196 193
352 351 348 346 344 341 339 335 332 329 325 320 316 310 305 301 297 295 292 290 289 287 286 284 284 282 277 272 270 275 278 270 261 254 246 237 220 214 213 208 206 207 211 209 205 201 198 200 200 195 193 195 197 194 183 181 199 212 192 177 200 233 253 256 240 235 218 198 191 197 192 177 191 231 223 208 207 222 237 235 209 205 201 193 193 196 197 197
353 353 351 350 348 346 344 340 338 334 331 327 322 316 311 304 298 295 292 289 287 285 283 281 281 279 276 272 268 274 279 272 261 249 241 233 220 215 216 217 215 210 209 209 206 204 203 203 201 198 194 191 196 193 179 184 200 206 190 187 218 236 250 253 242 232 221 216 208 202 201 194 205 228 221 208 208 218 230 226 208 207 203 195 192 192 194 196
350 350 351 351 349 348 347 344 342 338 335 331 326 322 316 310 304 298 292 288 286 283 281 279 278 276 274 271 269 274 273 268 263 248 236 229 225 218 212 213 217 213 209 209 205 204 205 204 203 202 194 187 193 192 183 192 200 197 197 210 226 236 240 242 245 233 225 222 205 204 212 201 197 208 211 211 213 221 226 215 205 210 207 197 194 192 190 194
347 347 348 348 348 347 346 344 344 341 339 336 332 327 321 316 311 304 297 290 286 283 279 277 274 273 271 268 271 272 255 254 257 244 222 212 215 216 213 209 209 210 208 209 208 208 205 201 202 199 192 188 191 193 193 197 201 201 214 236 242 246 245 242 245 235 232 227 206 212 219 206 206 217 219 214 212 221 220 205 203 209 206 199 198 195 189 191
343 343 343 345 345 345 345 344 345 344 343 342 337 332 326 321 315 309 303 295 289 282 277 275 272 271 268 266 270 259 241 240 241 240 232 219 213 211 214 212 204 204 207 209 208 208 202 195 199 198 191 191 192 196 200 198 203 207 220 242 244 248 248 242 240 238 242 241 217 210 206 206 216 219 215 212 212 219 215 203 202 201 200 198 199 199 194 192
340 339 339 341 342 344 345 345 348 348 347 346 341 337 332 328 323 315 308 302 294 285 278 273 269 269 267 262 245 230 234 233 232 236 240 239 238 228 217 211 205 200 202 207 202 203 200 192 198 199 189 189 194 197 199 196 208 222 231 244 249 250 248 241 236 237 241 239 219 206 202 209 220 209 207 218 219 219 211 201 199 197 198 197 198 201 199 196
339 338 338 338 339 343 346 345 347 348 348 348 346 343 340 337 333 326 318 309 300 289 282 274 269 267 265 260 234 228 232 234 236 238 243 245 246 242 223 207 203 198 196 196 192 195 196 189 195 198 189 186 189 199 214 211 218 233 238 244 249 250 251 245 234 228 230 229 216 213 217 220 220 212 220 233 224 219 210 197 196 196 197 197 198 201 202 203
338 337 336 336 336 340 344 341 342 345 345 347 348 345 344 343 339 335 329 320 309 297 285 278 272 267 266 262 247 238 234 239 247 248 251 247 240 241 226 203 195 195 191 188 188 189 184 184 191 194 191 188 188 206 225 228 224 228 239 244 242 245 252 246 228 220 226 230 218 216 223 221 217 219 234 233 215 215 210 200 199 197 196 197 198 199 202 206
338 336 335 335 333 334 338 335 335 340 340 341 344 343 343 342 337 337 334 324 316 307 295 286 279 270 268 266 256 243 235 234 238 237 243 245 236 231 215 191 186 191 189 185 188 186 179 184 194 195 194 195 199 213 227 236 233 227 234 240 237 241 245 235 220 218 229 232 220 219 222 218 220 226 230 219 208 213 211 204 204 199 197 197 197 198 200 203
338 337 334 333 330 328 330 329 327 332 334 335 338 337 338 338 334 333 331 321 318 316 305 301 293 278 269 265 258 245 235 226 216 216 227 236 232 224 215 195 183 189 189 183 188 187 181 187 197 198 198 201 205 214 228 236 233 227 229 233 231 238 240 228 217 218 228 228 219 221 225 225 230 225 215 208 208 216 214 206 204 202 201 197 195 197 199 203
336 335 332 331 328 325 326 326 324 327 329 331 332 333 335 336 331 325 322 319 322 321 314 316 311 294 277 258 248 240 231 224 217 212 211 220 223 222 225 205 182 187 188 184 188 188 184 189 196 201 204 206 205 211 220 223 222 222 222 225 227 234 240 230 223 221 222 222 217 219 225 227 228 218 214 215 214 218 219 212 207 204 204 198 194 197 200 205
334 332 330 329 327 325 325 325 324 324 326 329 330 331 330 327 322 318 319 325 334 335 326 322 313 298 277 252 234 225 221 216 219 218 208 207 211 218 226 208 188 192 190 187 190 187 185 190 196 204 207 205 203 206 214 217 217 221 221 222 224 231 236 226 225 227 218 217 215 217 224 221 212 211 221 223 215 213 217 215 210 207 204 199 199 199 201 206
332 330 327 326 326 326 324 325 326 324 325 327 329 328 326 326 323 321 323 331 346 342 328 319 306 288 271 260 245 225 222 214 214 217 208 200 201 211 219 205 198 208 201 194 191 186 186 193 201 206 206 205 205 205 211 217 217 222 225 224 221 227 230 220 221 227 220 218 216 220 225 214 207 213 221 220 210 208 212 212 210 208 205 203 206 205 202 202
331 329 327 325 326 327 324 324 326 324 324 327 331 332 335 338 336 333 327 329 351 343 324 322 307 293 283 269 251 233 228 219 215 212 203 195 193 205 213 202 200 211 210 198 191 187 190 202 208 209 207 208 213 210 211 216 217 221 224 223 225 228 229 224 223 222 221 225 221 221 221 212 211 215 215 213 209 207 208 208 209 211 213 211 210 209 202 193
332 330 327 325 326 327 324 324 325 324 323 326 332 334 337 340 338 337 329 329 349 348 326 345 330 304 283 253 229 224 228 221 216 208 200 193 190 200 207 203 201 207 210 201 194 194 200 212 214 209 208 210 216 216 214 214 217 221 221 225 231 228 232 240 233 226 228 228 222 221 218 213 215 214 206 207 210 211 209 208 212 216 217 216 212 210 203 192
332 330 327 323 325 327 324 324 325 323 324 327 330 330 333 336 332 332 329 331 347 1 6 20 3 328 263 230 206 212 222 220 215 205 198 196 193 197 203 203 201 204 211 206 198 197 205 218 217 208 207 211 214 217 217 216 218 221 221 228 233 226 234 244 234 232 236 230 228 227 218 211 211 206 199 203 215 219 214 212 218 223 225 227 222 217 214 205
333 331 329 324 325 327 323 324 326 324 325 326 327 329 332 333 329 329 329 336 352 19 22 21 10 26 72 190 205 213 219 215 212 205 201 205 200 198 201 203 202 202 210 211 205 202 208 219 220 211 208 209 212 214 215 217 219 221 220 225 229 222 226 236 235 241 240 239 242 225 208 202 199 193 192 200 216 220 215 213 219 227 229 232 231 226 226 219
336 334 334 329 327 329 326 326 327 324 326 327 328 329 329 329 330 329 332 343 1 21 355 6 9 22 39 16 221 220 222 215 209 198 200 207 203 199 201 203 205 204 208 211 212 213 214 217 219 214 211 208 210 212 212 214 217 222 219 218 220 216 222 236 246 255 252 264 248 210 191 195 196 193 197 201 204 208 210 213 220 226 224 224 225 223 226 224
338 337 339 335 330 331 330 327 325 325 327 329 327 322 320 324 329 332 336 341 358 13 342 340 344 359 16 0 304 241 229 221 212 198 197 204 202 202 203 204 208 209 208 209 215 221 221 219 216 218 216 210 210 213 213 211 215 222 218 212 214 217 228 240 246 256 255 273 247 202 192 195 195 197 203 201 198 201 206 214 221 226 226 226 224 218 219 218
339 338 340 339 333 331 331 329 329 329 329 329 323 314 315 323 332 337 338 338 334 333 316 305 331 345 5 5 346 304 283 271 231 206 201 201 198 201 207 209 211 211 210 208 216 225 224 221 217 217 223 216 211 213 213 208 213 222 219 213 217 222 232 240 242 250 249 263 266 208 198 196 193 200 205 200 197 200 207 215 219 225 231 232 228 221 217 213
341 338 338 339 334 331 331 330 330 330 330 329 320 312 318 329 341 344 347 8 330 324 304 288 315 326 343 31 35 12 348 333 307 224 209 204 198 200 209 214 214 213 210 208 217 224 223 222 217 213 221 222 215 214 212 209 213 221 221 219 223 226 232 240 243 250 250 256 273 230 207 203 196 201 204 201 199 201 208 215 219 224 230 232 228 225 220 213
342 339 337 337 336 334 333 330 329 331 330 327 321 318 326 337 345 345 0 87 318 324 313 295 296 302 307 16 54 19 343 282 316 266 219 211 204 202 210 214 216 216 213 215 222 226 225 227 222 215 219 223 223 218 212 211 217 220 220 221 226 229 236 244 246 249 250 248 258 248 226 221 208 200 200 199 201 205 211 217 222 224 227 230 229 226 223 216
342 341 338 337 337 337 336 329 325 327 325 324 325 324 329 339 348 1 69 328 321 324 314 303 306 304 310 318 329 27 6 333 308 261 218 210 207 206 210 213 217 221 220 222 227 228 228 232 230 224 221 221 225 225 217 214 218 221 221 221 226 231 238 245 245 242 244 234 242 250 241 232 231 202 200 200 204 211 215 219 222 223 223 228 229 227 223 217
341 343 339 338 337 337 339 331 321 320 320 323 320 317 324 342 11 64 118 314 320 321 317 320 322 308 314 331 332 329 333 336 334 297 223 204 207 209 211 212 215 221 225 228 231 230 229 229 229 228 227 221 221 227 225 219 217 218 219 220 226 235 240 244 241 233 231 218 235 245 243 234 233 211 203 205 213 218 220 220 219 220 222 224 226 226 223 220
340 343 342 341 338 337 340 334 323 322 325 327 321 320 333 16 37 40 324 319 321 323 330 332 327 317 317 326 330 332 328 326 344 350 254 204 227 216 213 211 212 216 223 227 231 231 229 228 227 228 232 223 217 221 223 218 215 214 215 216 219 230 238 237 230 224 207 211 233 237 235 231 231 226 216 212 217 220 222 224 222 222 223 223 223 224 223 222
338 341 343 343 341 338 340 335 328 326 332 339 336 334 4 63 42 353 331 330 324 320 327 328 325 327 327 327 334 334 326 318 337 2 6 360 0 217 213 214 215 217 223 226 228 229 229 230 228 225 229 225 217 216 216 210 210 211 211 214 212 200 220 227 223 226 190 214 231 231 225 225 229 230 226 221 223 223 223 225 226 226 227 226 224 224 224 223
337 340 344 345 343 338 339 338 333 333 342 349 345 347 29 49 337 331 333 328 321 317 323 328 333 343 343 340 346 334 320 318 326 339 347 360 32 41 239 218 218 226 231 229 227 226 225 228 226 222 223 225 219 216 215 212 210 211 210 213 217 214 210 210 208 205 179 206 224 221 213 211 217 227 229 225 225 227 227 226 226 227 230 232 229 224 224 224
339 340 343 344 344 339 339 342 341 346 353 354 355 14 23 358 322 335 338 329 326 325 331 338 342 353 351 344 352 340 325 324 320 318 329 349 18 17 9 43 203 238 245 235 231 230 232 234 232 227 222 223 224 219 215 214 213 210 208 210 219 221 216 214 251 220 187 177 218 217 205 198 217 230 233 227 225 226 229 230 228 227 229 232 231 226 224 226
342 342 342 342 344 341 341 348 356 1 355 347 7 33 19 349 329 334 331 326 329 331 337 344 348 355 352 344 350 342 327 326 324 316 316 330 355 0 1 31 42 37 50 273 236 231 243 242 236 234 227 221 223 221 213 211 211 206 205 210 216 220 219 219 245 234 202 183 225 226 220 199 212 226 223 220 222 224 227 230 228 227 227 228 228 227 227 228
349 346 342 339 338 337 340 345 359 18 358 331 355 11 353 336 319 315 316 319 326 333 339 344 347 352 348 343 345 338 328 328 329 325 321 324 339 342 340 4 22 37 51 21 241 219 275 254 229 221 230 223 216 220 217 214 214 206 204 209 211 215 223 224 228 229 202 207 232 229 228 220 218 224 219 212 214 220 225 229 228 223 223 224 225 226 227 227
355 350 340 333 332 331 335 338 345 31 339 314 332 341 340 325 306 308 313 319 328 336 339 340 340 344 344 341 340 337 334 331 332 334 331 328 331 330 329 339 2 21 26 24 315 262 302 271 223 206 219 225 213 215 222 218 216 214 211 208 202 201 213 217 218 209 188 201 248 230 228 228 230 230 226 223 222 223 226 229 229 223 220 221 223 225 226 226
356 354 325 320 329 327 329 329 311 293 305 306 310 318 315 290 294 308 310 314 327 335 334 336 334 334 342 342 337 339 338 329 332 338 333 326 323 320 321 316 323 11 9 15 12 317 300 305 236 209 209 227 216 213 220 217 213 216 216 208 203 206 208 208 210 207 185 185 226 224 220 229 233 234 235 234 230 229 229 230 230 227 221 217 217 221 225 226
356 356 313 317 331 326 324 321 293 287 309 311 307 301 295 285 289 306 313 314 322 332 329 329 330 330 338 341 339 342 336 326 332 336 322 316 315 311 309 301 301 329 349 3 8 350 334 357 259 219 214 235 225 213 215 214 209 209 208 201 201 206 207 208 213 211 200 168 186 196 226 236 236 236 237 236 233 232 231 229 229 228 224 217 214 218 221 224
355 359 343 331 332 320 313 310 288 287 311 330 323 306 307 311 311 321 322 318 318 318 312 313 323 328 328 330 329 326 328 330 330 322 310 311 316 308 294 296 307 313 322 341 2 3 346 332 281 235 234 246 232 216 215 216 212 208 205 202 201 200 196 198 211 212 211 215 200 181 223 241 239 236 234 234 236 234 224 221 224 226 226 222 216 217 219 221
355 1 356 337 327 319 304 284 271 261 271 338 330 311 316 315 345 350 332 320 318 311 309 312 320 328 327 326 328 325 327 327 314 306 307 305 309 304 295 302 308 305 309 312 325 349 342 327 293 254 247 240 225 217 218 218 217 214 210 208 206 202 198 197 196 203 207 218 228 221 240 244 237 233 239 238 237 233 219 214 218 221 223 222 217 216 216 219
353 359 359 343 334 331 309 279 261 248 249 270 259 314 340 321 330 349 336 332 337 325 322 325 327 335 340 339 341 340 333 323 307 304 310 305 305 303 300 305 303 296 303 303 310 339 349 345 320 276 255 242 229 226 231 224 218 216 214 209 208 206 205 207 208 205 202 211 224 228 274 244 224 220 259 255 238 231 221 215 217 217 219 221 221 220 215 216
350 353 359 356 349 344 320 287 268 252 254 265 259 286 16 8 339 341 342 345 346 333 327 330 330 337 346 345 340 338 331 322 310 309 312 308 305 304 300 301 298 295 299 300 315 333 333 330 335 316 277 252 236 235 249 238 219 214 213 210 210 209 208 209 210 208 206 211 215 212 252 240 224 242 277 265 237 229 218 212 216 216 216 217 221 219 213 212
349 349 357 3 1 357 338 303 299 278 265 273 281 287 344 2 348 349 357 350 340 326 323 325 326 330 342 341 327 324 325 320 314 312 313 311 308 305 305 302 293 284 284 292 309 319 308 306 314 302 267 240 239 234 233 240 226 216 212 211 211 208 206 206 203 199 203 212 213 214 231 235 233 266 288 262 223 216 204 201 211 212 212 213 215 212 207 207
350 348 353 2 12 14 356 295 291 303 283 279 284 289 314 344 352 344 350 337 319 317 325 326 325 328 339 341 327 325 328 322 314 311 311 313 311 310 312 308 292 278 275 283 292 301 304 303 296 274 260 260 272 257 213 257 278 233 214 210 211 208 206 208 204 200 203 207 210 215 227 235 242 260 281 199 182 187 184 192 203 207 210 213 211 204 199 205
350 350 351 357 3 7 2 291 264 300 307 299 293 289 308 340 346 328 325 319 311 320 329 326 326 332 340 337 323 325 331 325 315 314 315 315 315 314 312 305 292 277 267 267 277 296 305 305 315 309 284 273 272 255 229 259 283 265 229 212 208 207 205 206 206 206 207 205 207 216 225 235 243 246 222 167 166 173 181 188 196 203 210 213 210 201 195 203
348 350 353 356 358 359 1 348 295 316 342 331 314 309 333 348 349 342 339 323 311 325 335 324 322 331 339 332 318 321 330 327 318 318 320 320 321 321 317 309 290 269 258 257 267 297 306 304 331 331 303 265 244 237 239 262 275 284 255 215 205 206 205 205 208 207 206 207 210 216 224 233 236 229 206 184 176 176 181 185 192 200 206 210 207 200 196 201
347 349 353 358 3 1 356 351 336 335 360 355 340 2 354 337 335 346 341 323 316 333 338 326 321 323 326 324 315 316 324 324 320 321 322 322 324 325 323 320 290 254 252 254 256 287 310 310 333 336 318 244 225 241 252 266 283 282 240 209 202 206 209 208 209 209 209 215 219 219 223 229 227 218 213 201 187 184 183 182 187 193 199 205 204 200 198 199
346 348 351 355 2 3 355 352 346 335 351 353 327 319 323 316 312 313 318 323 328 335 331 321 317 315 315 316 312 316 323 317 308 311 312 313 316 318 318 319 301 252 242 247 255 280 310 314 332 342 332 242 221 249 237 248 307 281 201 198 200 205 210 211 211 212 214 216 218 222 226 222 215 215 224 218 196 192 190 185 185 187 194 202 203 201 199 197
343 346 350 350 354 358 352 350 349 339 334 327 313 309 305 311 318 312 311 322 328 330 332 327 318 313 312 312 309 312 316 305 294 292 290 292 295 297 301 308 307 274 248 248 256 270 299 312 333 347 336 299 219 246 231 238 321 98 149 192 199 201 208 211 212 213 216 218 217 222 227 211 200 209 216 201 188 191 190 188 188 189 195 199 200 199 197 196
341 345 348 345 346 352 347 344 348 347 340 325 312 309 304 306 318 320 317 314 315 330 340 334 321 314 313 313 312 310 307 301 296 291 287 285 279 278 286 294 303 292 268 258 258 267 294 311 331 346 334 320 330 244 219 227 348 76 55 43 190 198 206 207 204 203 209 216 217 220 222 199 192 202 187 165 172 183 183 186 188 190 193 192 193 195 196 197
Height
3155 3153 3152 3151 3150 3149 3147 3146 3145 3144 3143 3142 3141 3140 3139 3138 3137 3137 3136 3136 3135 3134 3134 3134 3134 3134 3133 3133 3134 3133 3133 3133 3133 3134 3134 3134 3134 3135 3136 3138 3139 3141 3142 3143 3144 3147 3149 3151 3153 3155 3156 3158 3159 3160 3161 3161 3161 3161 3162 3162 3163 3163 3164 3165 3166 3165 3165 3165 3165 3165 3166 3166 3166 3167 3168 3168 3170 3170 3169 3169 3170 3171 3171 3173 3175 3175 3175 3176
3153 3152 3151 3150 3148 3147 3146 3145 3144 3143 3141 3140 3140 3138 3137 3136 3135 3135 3134 3134 3133 3132 3132 3132 3132 3132 3132 3132 3132 3132 3132 3131 3131 3132 3132 3130 3131 3131 3134 3136 3137 3139 3140 3141 3144 3147 3149 3151 3152 3153 3155 3157 3158 3159 3160 3160 3160 3161 3161 3162 3162 3162 3163 3164 3165 3165 3164 3164 3164 3165 3165 3166 3166 3166 3167 3168 3168 3169 3168 3168 3169 3169 3170 3172 3174 3175 3176 3177
3152 3151 3149 3148 3147 3146 3145 3143 3142 3141 3140 3139 3138 3137 3136 3135 3134 3133 3133 3132 3131 3131 3130 3130 3130 3129 3130 3130 3130 3130 3130 3130 3130 3131 3129 3129 3130 3131 3133 3134 3136 3138 3140 3141 3143 3146 3149 3150 3151 3152 3154 3155 3157 3158 3158 3159 3159 3160 3160 3161 3162 3162 3163 3164 3165 3165 3165 3164 3164 3164 3165 3167 3167 3167 3168 3168 3168 3167 3167 3167 3168 3168 3168 3170 3173 3174 3176 3177
3151 3149 3148 3147 3145 3144 3143 3142 3141 3139 3138 3137 3136 3135 3134 3133 3132 3131 3131 3130 3130 3129 3128 3128 3128 3127 3128 3128 3129 3129 3129 3129 3128 3129 3127 3127 3130 3131 3132 3134 3135 3137 3138 3140 3141 3144 3147 3148 3149 3151 3153 3154 3155 3156 3156 3158 3158 3159 3159 3160 3161 3162 3163 3163 3165 3166 3166 3165 3165 3165 3166 3166 3167 3168 3168 3168 3167 3167 3167 3167 3168 3168 3169 3170 3172 3174 3175 3177
3150 3148 3147 3145 3144 3143 3141 3140 3139 3137 3136 3135 3134 3133 3132 3131 3130 3129 3129 3128 3128 3127 3126 3126 3126 3126 3126 3126 3127 3127 3127 3127 3127 3127 3126 3126 3128 3130 3132 3133 3134 3135 3137 3137 3139 3141 3143 3145 3147 3149 3150 3152 3154 3154 3155 3157 3157 3158 3158 3159 3160 3161 3162 3163 3165 3166 3167 3167 3166 3166 3166 3166 3166 3167 3168 3167 3167 3167 3167 3167 3169 3169 3170 3171 3172 3173 3175 3177
3148 3147 3145 3144 3142 3141 3139 3138 3137 3135 3134 3133 3132 3131 3130 3129 3128 3127 3126 3126 3126 3125 3124 3124 3124 3124 3124 3124 3124 3125 3126 3126 3126 3126 3125 3126 3127 3129 3130 3132 3133 3134 3134 3135 3137 3138 3140 3142 3144 3145 3148 3150 3152 3153 3154 3156 3156 3156 3157 3158 3159 3161 3162 3163 3164 3166 3167 3167 3166 3166 3166 3166 3166 3167 3167 3167 3167 3167 3167 3168 3169 3170 3171 3172 3173 3174 3175 3177
3147 3146 3144 3143 3141 3140 3138 3136 3135 3134 3132 3131 3130 3129 3128 3126 3126 3125 3124 3123 3123 3123 3123 3122 3122 3122 3122 3122 3122 3122 3124 3125 3124 3125 3125 3126 3126 3127 3128 3130 3131 3132 3132 3134 3135 3136 3137 3139 3140 3143 3146 3148 3150 3152 3154 3154 3155 3155 3155 3157 3158 3159 3161 3162 3164 3165 3166 3167 3166 3165 3166 3166 3166 3166 3167 3167 3167 3167 3168 3169 3170 3170 3171 3172 3173 3174 3175 3177
3146 3145 3143 3142 3140 3138 3137 3135 3133 3132 3130 3129 3128 3126 3125 3124 3123 3122 3122 3121 3121 3120 3120 3120 3119 3120 3120 3120 3120 3121 3122 3122 3123 3123 3123 3124 3125 3125 3126 3127 3129 3130 3132 3133 3134 3135 3136 3137 3139 3142 3144 3146 3149 3152 3153 3154 3154 3154 3154 3155 3157 3158 3160 3161 3163 3164 3166 3166 3166 3165 3165 3165 3166 3167 3167 3167 3167 3167 3168 3169 3169 3170 3170 3171 3173 3174 3176 3177
3145 3144 3142 3140 3139 3137 3136 3134 3132 3130 3129 3127 3126 3124 3123 3122 3121 3120 3119 3118 3118 3118 3117 3117 3117 3117 3117 3118 3118 3119 3119 3119 3121 3121 3121 3122 3123 3124 3124 3126 3127 3129 3130 3131 3133 3134 3135 3135 3138 3141 3142 3146 3149 3150 3152 3152 3152 3153 3153 3155 3156 3157 3159 3160 3162 3163 3165 3165 3166 3165 3165 3165 3166 3167 3167 3167 3167 3167 3168 3168 3169 3169 3170 3171 3172 3174 3176 3177
3144 3142 3141 3139 3138 3136 3134 3132 3131 3129 3127 3125 3124 3122 3120 3119 3118 3117 3116 3116 3115 3115 3115 3115 3114 3114 3115 3115 3116 3118 3118 3116 3118 3119 3120 3121 3121 3123 3124 3125 3126 3128 3129 3130 3131 3131 3133 3136 3140 3142 3144 3146 3147 3149 3150 3150 3151 3152 3153 3154 3155 3157 3158 3160 3161 3162 3164 3164 3165 3165 3165 3166 3166 3167 3166 3166 3166 3167 3168 3168 3168 3169 3170 3171 3172 3173 3175 3177
3143 3141 3140 3138 3136 3134 3133 3131 3129 3127 3125 3123 3122 3120 3118 3117 3116 3115 3114 3113 3113 3112 3112 3112 3112 3112 3112 3113 3115 3117 3116 3115 3116 3117 3118 3119 3119 3121 3122 3124 3125 3127 3128 3129 3130 3131 3133 3137 3140 3142 3143 3144 3146 3148 3149 3149 3151 3152 3152 3154 3155 3156 3157 3158 3160 3161 3162 3163 3163 3164 3165 3166 3165 3165 3166 3165 3165 3167 3167 3168 3168 3168 3169 3171 3171 3172 3174 3176
3142 3140 3138 3137 3135 3133 3131 3129 3128 3126 3124 3122 3120 3118 3116 3114 3113 3112 3111 3110 3110 3109 3108 3109 3108 3109 3109 3111 3114 3115 3113 3113 3114 3114 3114 3116 3118 3119 3120 3122 3124 3125 3127 3128 3129 3131 3133 3136 3139 3139 3140 3142 3145 3147 3147 3148 3150 3151 3152 3153 3153 3155 3155 3156 3157 3159 3160 3161 3161 3163 3163 3163 3163 3164 3165 3164 3165 3166 3167 3167 3167 3168 3169 3170 3171 3172 3174 3176
3140 3138 3136 3135 3133 3131 3130 3128 3126 3124 3123 3121 3118 3116 3114 3112 3111 3110 3109 3108 3107 3105 3105 3105 3105 3106 3105 3108 3113 3112 3111 3111 3110 3111 3112 3115 3117 3117 3117 3119 3122 3124 3125 3128 3130 3131 3133 3135 3137 3138 3139 3141 3143 3146 3146 3148 3149 3149 3151 3152 3152 3152 3151 3153 3155 3157 3158 3159 3160 3161 3160 3160 3161 3163 3163 3163 3164 3165 3166 3167 3167 3167 3168 3169 3170 3171 3173 3175
3139 3137 3135 3133 3131 3129 3128 3126 3124 3123 3121 3119 3117 3114 3112 3111 3109 3107 3106 3105 3104 3102 3102 3101 3102 3103 3101 3105 3111 3110 3108 3107 3107 3110 3112 3114 3115 3115 3116 3117 3119 3121 3123 3126 3129 3130 3132 3135 3136 3138 3138 3139 3141 3144 3145 3146 3147 3148 3149 3149 3150 3149 3148 3150 3152 3154 3155 3157 3158 3159 3158 3158 3160 3162 3162 3162 3163 3164 3165 3166 3166 3166 3167 3168 3169 3170 3172 3173
3137 3135 3133 3131 3129 3128 3126 3124 3122 3121 3119 3117 3115 3113 3111 3109 3107 3105 3104 3102 3101 3099 3098 3098 3099 3099 3098 3102 3107 3106 3106 3106 3107 3110 3111 3111 3113 3113 3114 3115 3117 3120 3122 3125 3127 3128 3131 3133 3134 3135 3136 3138 3140 3141 3142 3143 3144 3145 3146 3146 3146 3147 3147 3148 3149 3151 3153 3154 3156 3156 3156 3156 3158 3160 3160 3161 3162 3163 3164 3164 3165 3166 3166 3167 3168 3169 3171 3172
3136 3134 3132 3130 3128 3126 3124 3122 3120 3119 3117 3115 3113 3111 3108 3106 3104 3103 3102 3101 3099 3096 3095 3095 3096 3096 3096 3098 3102 3102 3104 3105 3106 3107 3107 3108 3111 3112 3114 3114 3115 3118 3120 3123 3125 3127 3129 3131 3132 3133 3135 3136 3137 3138 3140 3141 3140 3141 3142 3142 3143 3144 3145 3146 3147 3149 3151 3152 3153 3153 3154 3154 3156 3158 3158 3159 3160 3162 3163 3163 3164 3165 3166 3167 3167 3169 3170 3171
3134 3132 3130 3128 3126 3124 3122 3120 3118 3116 3115 3113 3111 3109 3107 3104 3102 3101 3100 3099 3097 3095 3092 3093 3093 3092 3093 3096 3097 3098 3099 3101 3101 3101 3102 3106 3110 3111 3112 3112 3113 3116 3118 3121 3123 3124 3126 3127 3129 3131 3132 3132 3133 3136 3138 3135 3134 3136 3139 3140 3141 3142 3143 3144 3145 3147 3149 3150 3150 3150 3152 3152 3154 3156 3156 3157 3159 3160 3161 3162 3163 3164 3165 3166 3167 3168 3169 3170
3132 3130 3128 3126 3124 3121 3120 3117 3115 3113 3112 3110 3108 3106 3104 3101 3099 3098 3098 3097 3096 3094 3091 3090 3090 3089 3091 3093 3094 3096 3096 3097 3097 3096 3098 3101 3106 3108 3109 3110 3112 3114 3116 3117 3118 3121 3123 3124 3126 3128 3128 3127 3128 3129 3128 3126 3129 3133 3135 3137 3139 3140 3141 3141 3142 3144 3146 3147 3148 3148 3149 3150 3152 3153 3153 3155 3157 3159 3160 3162 3162 3163 3164 3165 3166 3167 3167 3168
3130 3128 3126 3124 3122 3119 3117 3115 3112 3110 3109 3108 3105 3103 3101 3100 3098 3095 3095 3094 3092 3091 3089 3087 3086 3085 3087 3089 3091 3093 3092 3093 3094 3094 3095 3097 3101 3104 3106 3108 3110 3112 3113 3113 3114 3116 3118 3121 3123 3121 3119 3118 3119 3121 3122 3125 3130 3132 3134 3136 3137 3138 3138 3138 3139 3141 3144 3146 3146 3146 3146 3148 3149 3151 3152 3154 3155 3157 3159 3161 3162 3163 3163 3164 3165 3166 3166 3167
3127 3125 3123 3122 3120 3117 3115 3113 3110 3107 3106 3105 3103 3101 3098 3095 3092 3088 3088 3090 3090 3088 3085 3084 3081 3080 3082 3085 3089 3089 3087 3089 3090 3092 3093 3095 3098 3101 3103 3104 3107 3109 3108 3109 3110 3113 3116 3117 3115 3110 3109 3113 3116 3120 3123 3127 3130 3132 3134 3135 3135 3136 3135 3135 3137 3138 3142 3144 3143 3143 3144 3146 3147 3148 3151 3152 3154 3155 3157 3159 3160 3161 3162 3163 3164 3164 3165 3166
3125 3123 3121 3120 3118 3115 3113 3111 3109 3106 3103 3102 3100 3097 3093 3089 3084 3081 3078 3082 3088 3084 3079 3078 3076 3075 3077 3081 3084 3084 3083 3084 3086 3089 3091 3092 3095 3098 3099 3100 3102 3103 3103 3107 3110 3112 3114 3111 3105 3103 3108 3114 3118 3121 3124 3127 3128 3130 3132 3133 3133 3133 3131 3132 3134 3136 3140 3141 3141 3142 3143 3145 3144 3144 3147 3149 3151 3152 3154 3156 3157 3159 3160 3161 3162 3163 3164 3166
3124 3121 3119 3117 3116 3114 3111 3109 3107 3105 3102 3100 3099 3096 3094 3091 3087 3084 3078 3076 3082 3081 3076 3075 3072 3071 3073 3075 3077 3077 3076 3078 3082 3086 3088 3089 3090 3092 3095 3097 3096 3098 3101 3105 3107 3109 3110 3102 3097 3104 3111 3116 3118 3121 3124 3125 3127 3128 3129 3130 3131 3129 3128 3130 3131 3134 3138 3139 3138 3140 3141 3142 3142 3142 3143 3145 3147 3148 3150 3152 3153 3155 3157 3159 3160 3162 3163 3164
3122 3120 3117 3115 3114 3112 3109 3108 3106 3103 3101 3099 3098 3096 3094 3092 3089 3087 3083 3079 3079 3079 3075 3073 3070 3068 3068 3069 3072 3070 3068 3073 3078 3082 3085 3085 3085 3087 3092 3093 3093 3096 3099 3100 3100 3102 3100 3093 3096 3107 3112 3114 3117 3119 3121 3124 3125 3125 3126 3127 3126 3126 3127 3127 3126 3131 3136 3136 3136 3136 3137 3139 3140 3141 3141 3143 3145 3147 3148 3150 3151 3153 3154 3156 3158 3160 3161 3162
3120 3118 3116 3113 3112 3110 3107 3106 3104 3101 3100 3098 3096 3095 3093 3092 3089 3086 3084 3081 3079 3076 3074 3072 3069 3066 3064 3066 3067 3065 3065 3070 3074 3079 3082 3082 3083 3085 3087 3090 3092 3093 3093 3095 3097 3096 3093 3092 3099 3107 3109 3111 3114 3116 3119 3121 3121 3121 3122 3122 3123 3123 3124 3123 3123 3129 3132 3132 3133 3134 3136 3138 3137 3138 3138 3140 3143 3145 3146 3148 3149 3151 3152 3154 3156 3157 3159 3160
3118 3116 3114 3111 3109 3108 3105 3104 3102 3100 3098 3096 3094 3093 3091 3089 3087 3083 3081 3079 3077 3075 3073 3070 3068 3065 3063 3064 3064 3062 3063 3065 3069 3075 3078 3079 3081 3082 3085 3088 3089 3088 3089 3093 3096 3094 3092 3095 3100 3103 3105 3109 3111 3113 3115 3116 3118 3119 3118 3118 3119 3120 3121 3121 3124 3129 3130 3129 3129 3129 3133 3136 3135 3133 3133 3135 3139 3141 3144 3146 3146 3147 3149 3151 3153 3155 3156 3158
3116 3114 3112 3109 3106 3105 3104 3102 3100 3098 3096 3095 3093 3092 3090 3087 3084 3082 3079 3077 3075 3073 3071 3069 3068 3066 3064 3065 3063 3060 3061 3064 3069 3073 3074 3076 3079 3081 3083 3085 3085 3086 3089 3094 3095 3092 3091 3095 3100 3101 3103 3105 3107 3109 3110 3113 3116 3114 3112 3115 3118 3118 3119 3120 3124 3128 3128 3126 3126 3126 3127 3130 3132 3131 3130 3131 3133 3136 3139 3142 3143 3144 3145 3147 3150 3152 3153 3155
3115 3112 3110 3107 3104 3102 3101 3099 3097 3096 3094 3093 3092 3090 3088 3085 3082 3080 3078 3076 3073 3071 3070 3069 3068 3066 3066 3067 3064 3063 3065 3067 3070 3073 3073 3074 3077 3079 3080 3081 3082 3084 3089 3094 3091 3086 3088 3094 3097 3099 3100 3102 3102 3103 3105 3110 3111 3107 3109 3115 3116 3116 3117 3119 3122 3126 3126 3125 3125 3125 3124 3125 3126 3126 3127 3128 3130 3132 3135 3136 3138 3140 3142 3144 3146 3149 3150 3152
3113 3110 3108 3106 3103 3100 3098 3096 3095 3094 3092 3091 3089 3087 3085 3082 3080 3079 3077 3077 3074 3071 3070 3070 3069 3067 3068 3069 3066 3065 3066 3066 3068 3072 3075 3076 3075 3076 3076 3078 3081 3083 3087 3089 3083 3080 3086 3089 3091 3096 3098 3096 3096 3097 3102 3107 3106 3105 3110 3115 3116 3115 3115 3118 3121 3123 3125 3125 3122 3122 3124 3122 3119 3121 3124 3126 3128 3129 3130 3131 3134 3136 3138 3140 3142 3145 3148 3149
3112 3109 3107 3105 3102 3099 3097 3094 3092 3091 3090 3089 3087 3085 3082 3080 3079 3077 3077 3076 3073 3070 3069 3069 3069 3068 3069 3068 3064 3062 3063 3063 3064 3066 3070 3074 3074 3073 3073 3076 3081 3083 3085 3084 3080 3082 3086 3086 3090 3094 3093 3091 3093 3097 3101 3104 3104 3106 3112 3115 3116 3116 3114 3117 3120 3120 3123 3123 3118 3118 3122 3120 3117 3117 3120 3123 3124 3125 3126 3127 3129 3131 3134 3136 3138 3141 3144 3147
3111 3108 3105 3103 3101 3099 3097 3094 3092 3090 3089 3087 3085 3083 3080 3079 3077 3076 3076 3075 3071 3069 3068 3069 3069 3068 3068 3065 3062 3061 3062 3062 3060 3058 3060 3066 3071 3073 3073 3076 3080 3081 3082 3082 3080 3082 3085 3087 3089 3089 3088 3090 3094 3097 3100 3102 3103 3107 3111 3113 3115 3115 3114 3115 3117 3118 3120 3118 3114 3115 3118 3118 3115 3112 3113 3117 3118 3120 3121 3123 3125 3128 3131 3133 3135 3137 3140 3143
3109 3106 3103 3101 3100 3098 3097 3095 3092 3090 3088 3086 3084 3082 3080 3077 3076 3077 3077 3074 3071 3069 3067 3067 3068 3068 3068 3066 3064 3062 3060 3059 3059 3057 3057 3060 3065 3070 3071 3072 3076 3077 3078 3077 3077 3080 3083 3085 3084 3083 3086 3090 3094 3095 3097 3100 3103 3106 3108 3110 3112 3112 3112 3112 3112 3114 3113 3111 3111 3112 3115 3116 3111 3108 3110 3112 3114 3116 3116 3119 3122 3124 3126 3128 3131 3133 3136 3139
3107 3105 3102 3100 3098 3096 3094 3093 3091 3089 3086 3085 3083 3080 3078 3076 3076 3078 3076 3073 3072 3070 3067 3066 3066 3065 3066 3067 3067 3064 3060 3059 3058 3058 3058 3059 3060 3063 3066 3068 3069 3071 3072 3071 3074 3077 3077 3078 3079 3082 3084 3086 3089 3091 3094 3097 3099 3102 3104 3107 3108 3108 3109 3108 3107 3106 3106 3107 3108 3109 3111 3110 3106 3106 3109 3110 3111 3113 3113 3115 3117 3119 3121 3124 3127 3130 3133 3136
3104 3103 3101 3098 3096 3094 3092 3090 3088 3087 3085 3083 3081 3078 3077 3076 3077 3078 3076 3074 3073 3071 3069 3067 3066 3066 3066 3065 3065 3063 3061 3060 3059 3057 3058 3058 3056 3056 3062 3066 3068 3068 3067 3068 3072 3072 3072 3073 3076 3079 3079 3080 3083 3085 3088 3090 3093 3096 3099 3100 3102 3103 3105 3104 3102 3101 3102 3103 3105 3107 3108 3105 3101 3104 3106 3108 3109 3111 3111 3112 3115 3117 3119 3121 3124 3127 3131 3134
3102 3100 3099 3097 3095 3091 3089 3088 3086 3084 3082 3080 3079 3077 3076 3077 3078 3077 3075 3074 3073 3071 3070 3068 3066 3066 3066 3066 3065 3063 3061 3059 3058 3057 3057 3057 3055 3054 3057 3062 3068 3071 3068 3067 3068 3067 3067 3067 3067 3070 3073 3076 3079 3081 3084 3088 3091 3092 3094 3097 3097 3096 3097 3098 3098 3097 3098 3100 3102 3104 3102 3097 3097 3100 3103 3106 3108 3109 3110 3111 3113 3116 3118 3119 3122 3125 3128 3130
3100 3097 3096 3094 3093 3090 3087 3086 3083 3081 3080 3079 3078 3077 3077 3077 3077 3076 3075 3074 3072 3071 3070 3068 3067 3065 3065 3066 3066 3065 3064 3061 3058 3057 3057 3058 3058 3059 3059 3059 3062 3064 3062 3061 3063 3064 3064 3061 3062 3067 3071 3074 3076 3078 3082 3086 3087 3088 3092 3093 3090 3089 3092 3095 3095 3094 3096 3097 3097 3097 3094 3093 3095 3098 3100 3104 3106 3107 3109 3110 3111 3114 3116 3118 3121 3123 3125 3127
3099 3095 3093 3091 3090 3088 3085 3083 3082 3080 3079 3078 3078 3077 3076 3076 3076 3076 3075 3074 3072 3070 3069 3067 3066 3065 3065 3065 3065 3064 3064 3063 3060 3057 3057 3059 3060 3061 3061 3059 3058 3056 3056 3059 3061 3063 3062 3059 3061 3068 3069 3070 3073 3075 3079 3081 3081 3084 3087 3084 3083 3088 3093 3095 3094 3093 3094 3095 3092 3090 3089 3092 3095 3095 3097 3100 3101 3103 3106 3106 3107 3110 3113 3115 3117 3120 3122 3123
3098 3093 3090 3088 3086 3084 3083 3082 3080 3079 3078 3078 3077 3076 3076 3076 3076 3075 3074 3073 3072 3070 3069 3067 3066 3066 3066 3065 3064 3062 3061 3061 3060 3058 3058 3060 3061 3060 3058 3058 3058 3057 3057 3060 3060 3060 3059 3054 3056 3063 3063 3064 3069 3072 3075 3076 3077 3079 3077 3077 3084 3091 3093 3093 3093 3092 3092 3093 3090 3086 3086 3089 3091 3090 3092 3096 3097 3099 3101 3102 3103 3106 3109 3111 3113 3116 3118 3120
3095 3092 3088 3086 3084 3082 3081 3081 3080 3078 3077 3077 3077 3076 3076 3076 3075 3074 3073 3072 3071 3070 3069 3068 3067 3067 3067 3065 3065 3062 3060 3060 3060 3060 3060 3060 3060 3060 3056 3055 3056 3056 3056 3056 3056 3055 3054 3050 3050 3054 3057 3060 3065 3068 3069 3071 3073 3073 3073 3076 3082 3085 3084 3086 3088 3087 3089 3091 3088 3085 3085 3086 3085 3084 3088 3091 3092 3094 3096 3097 3099 3101 3105 3108 3110 3113 3115 3117
3095 3092 3088 3084 3082 3081 3080 3079 3079 3079 3077 3077 3077 3076 3075 3075 3073 3072 3071 3071 3070 3070 3069 3069 3068 3067 3067 3066 3066 3063 3061 3061 3061 3062 3062 3060 3060 3059 3057 3055 3055 3054 3054 3054 3053 3052 3053 3052 3048 3048 3053 3057 3060 3061 3060 3061 3065 3069 3072 3074 3076 3076 3077 3079 3081 3081 3084 3087 3087 3086 3084 3081 3080 3082 3085 3086 3088 3090 3092 3093 3093 3096 3100 3104 3107 3109 3111 3114
3094 3091 3088 3083 3081 3080 3079 3079 3079 3078 3077 3076 3076 3075 3075 3074 3072 3071 3070 3069 3069 3069 3069 3068 3067 3066 3066 3066 3066 3064 3063 3062 3062 3063 3062 3061 3060 3059 3057 3055 3053 3051 3051 3053 3053 3051 3051 3051 3048 3045 3047 3051 3052 3052 3051 3053 3058 3062 3065 3066 3068 3071 3074 3077 3078 3078 3081 3083 3084 3085 3083 3077 3077 3080 3080 3080 3082 3084 3086 3088 3089 3091 3096 3100 3103 3105 3107 3110
3092 3089 3086 3082 3079 3078 3077 3078 3077 3076 3075 3075 3075 3074 3074 3072 3071 3071 3069 3067 3068 3069 3068 3067 3067 3066 3065 3065 3064 3064 3063 3062 3062 3062 3061 3060 3060 3058 3055 3054 3053 3051 3050 3050 3051 3050 3049 3049 3046 3042 3042 3044 3045 3048 3051 3053 3056 3058 3060 3061 3064 3067 3070 3074 3075 3075 3077 3079 3079 3080 3079 3074 3073 3075 3075 3075 3077 3079 3082 3084 3086 3087 3091 3096 3099 3101 3103 3107
3090 3088 3085 3079 3075 3073 3074 3075 3074 3073 3073 3072 3072 3072 3071 3070 3071 3070 3068 3066 3067 3067 3066 3066 3066 3065 3065 3064 3063 3063 3062 3061 3061 3060 3059 3058 3059 3058 3054 3053 3054 3053 3052 3051 3050 3052 3051 3048 3045 3040 3038 3040 3040 3043 3050 3054 3057 3059 3059 3061 3063 3064 3065 3066 3067 3069 3073 3075 3076 3076 3075 3070 3069 3072 3072 3072 3073 3075 3077 3080 3082 3085 3088 3093 3096 3098 3101 3105
3086 3086 3085 3078 3072 3070 3069 3069 3071 3071 3070 3069 3069 3069 3068 3069 3069 3067 3066 3065 3066 3066 3065 3065 3065 3064 3064 3063 3062 3062 3061 3059 3058 3058 3058 3056 3056 3056 3053 3053 3053 3052 3053 3052 3050 3051 3050 3048 3046 3040 3036 3037 3038 3040 3044 3049 3054 3055 3056 3058 3060 3060 3060 3061 3064 3067 3070 3072 3073 3074 3073 3067 3066 3069 3069 3069 3070 3070 3073 3077 3079 3082 3086 3090 3093 3096 3100 3103
3082 3082 3081 3076 3069 3067 3065 3065 3067 3068 3067 3066 3066 3066 3066 3066 3066 3065 3065 3065 3065 3065 3065 3064 3064 3063 3063 3062 3061 3061 3060 3058 3056 3055 3056 3054 3053 3053 3052 3051 3051 3051 3052 3052 3050 3051 3050 3049 3048 3045 3039 3036 3037 3039 3041 3043 3047 3049 3051 3054 3055 3057 3059 3061 3064 3067 3067 3068 3069 3072 3071 3065 3064 3066 3065 3064 3064 3066 3069 3073 3075 3079 3084 3087 3089 3093 3098 3101
3079 3076 3076 3074 3069 3066 3065 3065 3065 3065 3064 3064 3065 3065 3064 3064 3064 3065 3065 3066 3066 3066 3065 3064 3063 3062 3062 3061 3060 3059 3059 3058 3056 3054 3053 3052 3051 3050 3049 3049 3049 3049 3051 3052 3052 3052 3051 3050 3049 3048 3044 3038 3035 3036 3038 3040 3043 3045 3046 3048 3050 3053 3056 3058 3061 3062 3062 3064 3067 3068 3067 3063 3062 3064 3061 3058 3059 3062 3066 3070 3073 3077 3081 3084 3086 3090 3096 3099
3078 3073 3071 3071 3070 3068 3067 3065 3065 3064 3063 3063 3063 3064 3064 3063 3064 3064 3065 3065 3065 3065 3064 3063 3062 3061 3060 3059 3058 3057 3057 3057 3055 3053 3051 3050 3048 3047 3047 3046 3046 3047 3048 3050 3051 3051 3049 3047 3046 3046 3043 3038 3034 3032 3034 3037 3039 3039 3041 3043 3046 3050 3054 3056 3058 3057 3058 3062 3063 3064 3064 3062 3062 3064 3061 3057 3058 3061 3065 3068 3071 3075 3079 3081 3084 3088 3093 3097
3078 3074 3070 3068 3067 3067 3066 3065 3064 3064 3063 3063 3063 3064 3064 3064 3064 3064 3064 3064 3064 3063 3062 3061 3061 3060 3059 3058 3056 3055 3055 3054 3053 3051 3049 3048 3046 3044 3044 3043 3043 3045 3046 3047 3048 3049 3047 3043 3042 3042 3039 3035 3033 3030 3030 3033 3034 3034 3036 3040 3043 3047 3051 3053 3053 3054 3057 3060 3059 3061 3063 3061 3061 3065 3063 3059 3060 3062 3065 3068 3071 3074 3077 3079 3082 3086 3091 3095
3078 3076 3073 3070 3067 3065 3064 3064 3063 3063 3063 3063 3063 3063 3063 3063 3063 3063 3063 3062 3062 3062 3061 3060 3059 3059 3058 3057 3055 3054 3052 3051 3049 3048 3047 3045 3042 3041 3040 3040 3041 3042 3043 3044 3046 3047 3044 3040 3039 3037 3032 3029 3028 3027 3028 3031 3032 3031 3031 3034 3039 3043 3046 3049 3051 3053 3056 3056 3057 3060 3061 3059 3061 3065 3063 3062 3063 3064 3066 3069 3072 3073 3075 3077 3080 3084 3088 3092
3077 3074 3072 3071 3068 3066 3064 3063 3063 3063 3063 3062 3062 3062 3062 3062 3062 3062 3061 3060 3060 3060 3059 3058 3057 3057 3056 3056 3054 3052 3051 3049 3047 3046 3044 3042 3040 3038 3036 3037 3038 3039 3040 3041 3043 3044 3042 3038 3036 3033 3027 3024 3025 3026 3027 3029 3030 3029 3027 3029 3035 3040 3043 3047 3050 3053 3054 3055 3057 3059 3058 3058 3061 3063 3063 3062 3063 3064 3066 3069 3071 3073 3074 3076 3078 3081 3086 3090
3075 3073 3070 3068 3067 3066 3064 3063 3062 3062 3062 3062 3062 3062 3062 3061 3061 3060 3060 3060 3059 3058 3057 3056 3055 3055 3054 3053 3052 3051 3050 3048 3046 3044 3042 3041 3039 3037 3035 3035 3035 3036 3037 3038 3039 3040 3039 3036 3034 3032 3025 3022 3023 3023 3024 3027 3028 3026 3026 3029 3033 3037 3041 3044 3048 3052 3053 3054 3056 3057 3057 3057 3060 3061 3060 3060 3062 3064 3066 3067 3069 3072 3074 3075 3077 3080 3085 3088
3073 3071 3069 3066 3065 3064 3063 3062 3061 3061 3061 3061 3061 3061 3061 3060 3060 3059 3058 3059 3058 3057 3056 3055 3053 3052 3051 3051 3050 3048 3048 3046 3044 3042 3041 3039 3038 3037 3036 3035 3034 3035 3035 3035 3035 3037 3037 3035 3033 3031 3026 3021 3020 3020 3022 3025 3025 3022 3024 3028 3032 3034 3037 3042 3048 3051 3052 3053 3054 3055 3055 3056 3058 3058 3057 3058 3061 3063 3064 3066 3068 3071 3073 3074 3076 3079 3084 3087
3071 3069 3067 3065 3064 3063 3063 3062 3061 3060 3060 3060 3060 3059 3059 3059 3059 3057 3056 3057 3057 3055 3054 3053 3052 3050 3049 3048 3047 3046 3045 3043 3041 3040 3039 3037 3037 3035 3035 3034 3034 3034 3033 3033 3033 3034 3036 3035 3032 3032 3028 3021 3018 3019 3021 3022 3023 3022 3025 3026 3027 3030 3034 3039 3044 3046 3047 3050 3051 3052 3054 3056 3056 3055 3055 3057 3059 3061 3063 3065 3068 3070 3071 3073 3076 3079 3083 3086